User: anonymous   Login
Location: Palomar Mountain Lodge
(33.3110°N, 116.8495°W)
Time: 10:42:05
(UTC-08:00)
Language:

SWIFT - Orbit

View from above orbital plane
View from above orbital plane
View from above satellite
View from above satellite

Ground track
Ground track

The orbit data is extracted from the following two-line orbital elements,

1 28485U 04047A   18346.24219036  .00000824  00000-0  26159-4 0  9992
2 28485  20.5575 296.5722 0010938 260.4784  99.4414 15.04259468770074
Epoch (UTC): 12 December 2018 05:48:45
Eccentricity: 0.0010938
inclination: 20.5575°
perigee height: 546 km
apogee height: 561 km
right ascension of ascending node: 296.5722°
argument of perigee: 260.4784°
revolutions per day: 15.04259468
mean anomaly at epoch: 99.4414°
orbit number at epoch: 77007

The dashed part of the orbit path shows where the satellite is in the earth's shadow,  

DLR